User: anonymous   Login
Location: Unspecified
(0.0000°N, 0.0000°E)
Time: 05:45:25
(UTC+00:00)
Language:

STARLINK-3105 - Orbit

View from above orbital plane
View from above orbital plane
View from above satellite
View from above satellite

Ground track
Ground track

The orbit is defined by the following mean orbital elements,

1 49440U          26145.59272132 +.00000000 +00000-0 +15050-3 0 00007
2 49440  53.2130 223.8894 0001380  76.5813 283.5333 15.08847676    04
Epoch (UTC): 25 May 2026 14:13:31
Eccentricity: 0.0001380
inclination: 53.2130°
perigee height: 539 km
apogee height: 541 km
right ascension of ascending node: 223.8894°
argument of perigee: 76.5813°
revolutions per day: 15.08847676
mean anomaly at epoch: 283.5333°

The dashed part of the orbit path shows where the satellite is in the earth's shadow,  

DLR